Flag for Norway Weather past 2 weeks in Fredrikstad, Norway

Now
37 °F

Passing clouds.


Feels Like: 35 °F
Forecast: 40 / 42 °F
Wind: 3 mph from Southwest

Location: Rygge

Current Time: Dec 22, 2014 at 6:03:53 PM

Latest Report: Dec 22, 2014 at 5:20 PM


Visibility: N/A

Pressure: 29.27 "Hg

Humidity: 87%

Dew point: 34 °F

Location of FredrikstadLocation

Historic Weather in Fredrikstad — Graph

°F

Fredrikstad temperature yesterday

Maximum temperature yesterday: 39 °F (at 9:20 PM)
Minimum temperature yesterday: 28 °F (at 1:20 AM)
Average temperature yesterday: 35 °F

Past Weeks' High & Low Weather Summary

 TemperatureHumidityPressure
High45 °F (Dec 7, 4:20 PM)100% (Dec 9, 12:20 AM)30.01 "Hg (Dec 9, 12:20 AM)
Low21 °F (Dec 17, 8:50 AM)56% (Dec 20, 9:20 PM)29.00 "Hg (Dec 12, 5:20 PM)
Average35 °F86%29.35 "Hg
* Reported Dec 7 4:20 PM — Dec 22 4:50 PM, Fredrikstad, Weather by CustomWeather, © 2014

Note: Actual official high and low records may vary slightly from our data, if they occured in-between our weather recording intervals... More about our weather records

Advertising

Fredrikstad weather history for previous 24 hours

 ConditionsComfort  
Time TempWeatherWind HumidityBarometerVisibility
4:50 PM
Dec 22
37 °FPassing clouds.6 mph81%29.24 "HgN/A
4:20 PM37 °FClear.8 mph81%29.24 "Hg10 mi
3:50 PM39 °FClear.2 mph75%29.24 "Hg10 mi
3:20 PM37 °FPassing clouds.7 mph81%29.24 "HgN/A
2:50 PM37 °FPassing clouds.5 mph81%29.24 "HgN/A
2:20 PM39 °FSunny.3 mph75%29.24 "Hg10 mi
1:50 PM39 °FSunny.7 mph75%29.24 "Hg10 mi
1:20 PM39 °FSunny.7 mph75%29.24 "Hg10 mi
12:50 PM39 °FSunny.6 mph75%29.24 "Hg10 mi
12:20 PM39 °FPassing clouds.7 mph81%29.24 "HgN/A
11:50 AM39 °FSunny.8 mph81%29.24 "Hg10 mi
11:20 AM37 °FPassing clouds.5 mph87%29.24 "HgN/A
10:50 AM37 °FSunny.7 mph87%29.24 "Hg10 mi
10:20 AM37 °FSunny.7 mph87%29.24 "Hg10 mi
9:50 AM37 °FSunny.8 mph87%29.21 "Hg10 mi
9:20 AM37 °FSunny.10 mph87%29.21 "Hg10 mi
8:20 AM37 °FClear.7 mph93%29.21 "Hg10 mi
7:50 AM37 °FPassing clouds.7 mph93%29.18 "HgN/A
7:20 AM37 °FClear.6 mph100%29.21 "Hg10 mi
6:50 AM37 °FClear.7 mph93%29.21 "Hg10 mi
6:20 AM36 °FClear.8 mph100%29.18 "Hg10 mi
5:50 AM36 °FChilly.9 mph100%29.21 "HgN/A
5:20 AM32 °FLight fog.3 mph100%29.21 "Hg3 mi
4:50 AM34 °FClear.2 mph100%29.21 "Hg0 mi
4:20 AM34 °FFog.6 mph100%29.21 "Hg0 mi
3:50 AM36 °FFog.6 mph93%29.21 "Hg1 mi
3:20 AM36 °FLow clouds.6 mph100%29.24 "Hg4 mi
2:50 AM36 °FLow clouds.5 mph100%29.24 "Hg2 mi
2:20 AM36 °FFog.3 mph100%29.27 "Hg3 mi
1:50 AM36 °FPassing clouds.3 mph100%29.27 "Hg3 mi
1:20 AM36 °FPartly cloudy.3 mph100%29.27 "Hg3 mi
12:50 AM37 °FPassing clouds.6 mph93%29.30 "Hg5 mi
12:20 AM37 °FMostly cloudy.7 mph100%29.30 "HgN/A
11:50 PM
Dec 21
39 °FPassing clouds.7 mph93%29.30 "HgN/A
11:20 PM39 °FLow clouds.7 mph100%29.30 "HgN/A
10:50 PM39 °FPassing clouds.5 mph100%29.33 "HgN/A
10:20 PM39 °FLight rain. Passing clouds.6 mph100%29.33 "Hg4 mi
9:50 PM39 °FPassing clouds.6 mph100%29.36 "Hg3 mi
9:20 PM39 °FLight rain. Fog.8 mph100%29.36 "Hg3 mi
8:50 PM37 °FDrizzle. Fog.5 mph100%29.39 "Hg1 mi
8:20 PM37 °FDrizzle. Fog.5 mph100%29.42 "Hg1 mi
7:50 PM36 °FLight rain. Fog.7 mph100%29.45 "Hg1 mi
7:20 PM34 °FDrizzle. Low clouds.9 mph100%29.45 "Hg2 mi
6:50 PM34 °FDrizzle. Low clouds.10 mph100%29.47 "Hg2 mi
6:20 PM34 °FLight rain. Low clouds.9 mph93%29.50 "Hg4 mi
Weather by CustomWeather, © 2014

See weather overviewHow to use our weather pages